CW9540 Weather Reports


Display with metric or nautical units.
time (UTC)temp
F
wind
direction
speed
MPH
gust
MPH
rain 1hr
in
rain 24hr
in
rain mn
in
humidity
%
barometer
mb
20260508182004 62 256 2.0 5.0 0.00 0.05 0.05 42 1009.7
20260508181552 58 152 1.0 9.0 0.00 0.05 0.05 45 1010.5
20260508181503 58 192 2.0 7.0 0.00 0.05 0.05 46 1009.8
20260508181003 57 241 5.0 9.0 0.00 0.05 0.05 45 1009.8
20260508180503 57 297 2.0 7.0 0.00 0.05 0.05 48 1009.8
20260508180051 55 63 1.0 11.0 0.00 0.05 0.05 52 1010.6
20260508180004 55 163 2.0 9.0 0.00 0.05 0.05 52 1009.8
20260508175504 56 198 5.0 12.0 0.00 0.05 0.05 50 1009.9
20260508174608 54 243 5.0 10.0 0.00 0.05 0.05 50 1010.8
20260508174504 54 224 5.0 10.0 0.00 0.05 0.05 50 1009.9
20260508174003 53 184 7.0 10.0 0.00 0.05 0.05 52 1010.0
20260508173049 53 245 4.0 11.0 0.00 0.05 0.05 56 1011.0
20260508172504 55 233 3.0 8.0 0.00 0.05 0.05 54 1010.2
20260508172004 55 173 2.0 9.0 0.00 0.05 0.05 57 1010.1
20260508171551 54 243 4.0 10.0 0.00 0.05 0.05 52 1011.1
20260508171503 54 186 5.0 10.0 0.00 0.05 0.05 56 1010.2
20260508171004 53 195 6.0 9.0 0.00 0.05 0.05 56 1010.4
20260508170504 54 243 2.0 7.0 0.00 0.05 0.05 56 1010.4
20260508170053 53 178 2.0 9.0 0.00 0.05 0.05 57 1011.2
20260508170004 53 195 2.0 9.0 0.00 0.05 0.05 61 1010.4
20260508165503 51 231 3.0 8.0 0.00 0.05 0.05 60 1010.5
20260508165004 51 203 2.0 5.0 0.00 0.05 0.05 61 1010.6
20260508164552 51 0 1.0 5.0 0.00 0.05 0.05 59 1011.4
20260508164504 51 224 2.0 5.0 0.00 0.05 0.05 60 1010.6
20260508164003 52 251 2.0 5.0 0.00 0.05 0.05 61 1010.7
20260508163047 50 230 4.0 8.0 0.00 0.05 0.05 64 1011.6
20260508163004 51 209 5.0 8.0 0.00 0.05 0.05 64 1010.9
20260508162504 51 196 2.0 8.0 0.00 0.05 0.05 66 1011.0
20260508162004 49 213 3.0 6.0 0.00 0.05 0.05 65 1010.9
20260508161549 50 245 2.0 7.0 0.00 0.05 0.05 63 1011.7
20260508160503 50 253 3.0 7.0 0.00 0.05 0.05 67 1011.0
20260508160053 49 0 2.0 10.0 0.00 0.05 0.05 64 1011.7
20260508155504 51 207 5.0 10.0 0.00 0.05 0.05 66 1011.0
20260508155004 51 221 3.0 6.0 0.00 0.05 0.05 67 1011.1
20260508154552 48 232 3.0 8.0 0.00 0.05 0.05 68 1011.8
20260508154503 49 189 3.0 5.0 0.00 0.05 0.05 68 1011.0
20260508154004 49 243 3.0 8.0 0.00 0.05 0.05 68 1011.0
20260508153503 49 229 4.0 7.0 0.00 0.05 0.05 68 1011.0
20260508153052 48 211 5.0 9.0 0.00 0.05 0.05 69 1011.6
20260508153003 49 172 5.0 8.0 0.00 0.05 0.05 69 1011.0
20260508152504 49 249 3.0 6.0 0.00 0.05 0.05 69 1010.9
20260508152004 48 235 3.0 8.0 0.00 0.05 0.05 72 1010.9
20260508151558 48 234 3.0 8.0 0.00 0.05 0.05 71 1011.6
20260508151003 48 179 2.0 6.0 0.00 0.05 0.05 75 1011.0
20260508150504 48 204 3.0 8.0 0.00 0.05 0.05 74 1011.0
20260508150052 47 0 3.0 8.0 0.00 0.05 0.05 71 1011.6
20260508150004 48 220 4.0 8.0 0.00 0.05 0.05 72 1010.9
20260508145504 48 161 3.0 8.0 0.00 0.05 0.05 75 1010.8
20260508145003 47 185 2.0 6.0 0.00 0.05 0.05 77 1010.8
20260508144550 46 198 3.0 8.0 0.00 0.05 0.05 76 1011.5
20260508144004 46 154 4.0 8.0 0.00 0.05 0.05 79 1010.9
20260508143503 46 193 4.0 7.0 0.00 0.05 0.05 80 1010.9
20260508143056 45 138 4.0 7.0 0.00 0.05 0.05 79 1011.7
20260508143004 45 170 3.0 6.0 0.00 0.05 0.05 81 1011.0
20260508142504 44 207 3.0 6.0 0.00 0.05 0.05 83 1011.1
20260508142004 44 176 3.0 6.0 0.00 0.05 0.05 84 1011.1
20260508141550 44 219 2.0 4.0 0.00 0.05 0.05 85 1011.8
20260508141504 44 230 2.0 3.0 0.00 0.05 0.05 84 1011.1
20260508141003 44 209 2.0 3.0 0.00 0.05 0.05 84 1011.1
20260508140504 44 236 1.0 3.0 0.01 0.05 0.05 86 1011.1
20260508140058 43 236 1.0 4.0 0.01 0.05 0.05 84 1011.8
20260508140004 44 224 2.0 3.0 0.01 0.05 0.05 85 1011.2
20260508135504 44 224 2.0 3.0 0.01 0.05 0.05 85 1011.2
20260508135004 44 258 1.0 2.0 0.01 0.05 0.05 88 1011.2
20260508134553 43 0 0.0 3.0 0.01 0.05 0.05 86 1011.8
20260508134503 44 227 1.0 3.0 0.01 0.05 0.05 86 1011.1
20260508134003 44 232 1.0 3.0 0.01 0.05 0.05 87 1011.1
20260508133504 44 196 2.0 3.0 0.02 0.05 0.05 88 1011.1
20260508133050 43 234 1.0 5.0 0.02 0.05 0.05 87 1011.8
20260508133004 43 269 2.0 5.0 0.02 0.05 0.05 88 1011.2
20260508132503 43 220 2.0 3.0 0.03 0.05 0.05 88 1011.2
20260508132003 43 53 2.0 6.0 0.03 0.05 0.05 88 1011.1
20260508131556 43 215 2.0 5.0 0.03 0.05 0.05 88 1011.8
20260508131004 43 236 2.0 5.0 0.03 0.05 0.05 88 1011.2
20260508130503 43 242 1.0 3.0 0.03 0.04 0.04 88 1011.1
20260508130103 42 223 1.0 4.0 0.03 0.04 0.04 88 1011.7
20260508130004 43 224 2.0 3.0 0.03 0.04 0.04 88 1011.1
20260508125504 43 236 2.0 3.0 0.03 0.04 0.04 88 1011.1
20260508125004 43 351 1.0 3.0 0.03 0.04 0.04 89 1011.1
20260508124551 42 0 1.0 6.0 0.03 0.04 0.04 88 1011.8
20260508124504 43 255 1.0 3.0 0.03 0.04 0.04 89 1011.1
20260508124003 43 275 2.0 6.0 0.03 0.04 0.04 88 1011.0
20260508123504 43 232 2.0 3.0 0.02 0.03 0.03 89 1011.0
20260508123059 42 89 1.0 8.0 0.02 0.03 0.03 90 1011.6
20260508123004 43 245 2.0 7.0 0.02 0.03 0.03 91 1010.9
20260508122504 43 245 3.0 8.0 0.01 0.02 0.02 93 1010.9
20260508121546 42 193 1.0 3.0 0.01 0.02 0.02 94 1011.4
20260508121504 42 204 1.0 3.0 0.01 0.02 0.02 94 1010.5
20260508121003 42 60 0.0 2.0 0.01 0.02 0.02 94 1010.5
20260508120503 42 304 0.0 1.0 0.00 0.01 0.01 94 1010.3
20260508120053 41 0 0.0 2.0 0.00 0.01 0.01 94 1011.0
20260508120004 42 255 1.0 2.0 0.00 0.01 0.01 94 1010.2
20260508115505 42 335 0.0 1.0 0.00 0.01 0.01 94 1010.1
20260508115003 42 329 1.0 2.0 0.00 0.01 0.01 94 1010.1
20260508114553 41 206 0.0 3.0 0.00 0.01 0.01 93 1010.8
20260508114503 41 184 1.0 2.0 0.00 0.01 0.01 94 1010.0
20260508114004 41 181 1.0 3.0 0.00 0.01 0.01 94 1010.0
20260508113504 41 193 1.0 2.0 0.00 0.01 0.01 94 1010.0
20260508113050 41 0 0.0 1.0 0.00 0.01 0.01 94 1010.7
20260508113004 41 252 1.0 1.0 0.00 0.01 0.01 94 1009.9
20260508112503 41 272 1.0 1.0 0.00 0.01 0.01 94 1009.8
20260508112004 41 248 0.0 1.0 0.00 0.01 0.01 94 1009.8
20260508111602 40 0 0.0 1.0 0.00 0.01 0.01 93 1010.4
20260508111504 41 22 0.0 1.0 0.00 0.01 0.01 94 1009.6
20260508111004 41 230 0.0 1.0 0.00 0.01 0.01 94 1009.6
20260508110503 40 231 0.0 1.0 0.00 0.01 0.01 94 1009.5
20260508110049 40 0 0.0 1.0 0.00 0.01 0.01 93 1010.2
20260508110003 40 58 0.0 1.0 0.00 0.01 0.01 94 1009.3
20260508105504 40 342 0.0 1.0 0.00 0.01 0.01 94 1009.4
20260508105004 40 16 0.0 1.0 0.00 0.01 0.01 94 1009.4
20260508104559 40 0 0.0 2.0 0.00 0.01 0.01 93 1010.2
20260508104503 40 319 0.0 1.0 0.00 0.01 0.01 94 1009.3
20260508104004 40 50 1.0 2.0 0.00 0.01 0.01 94 1009.3
20260508103503 40 315 0.0 1.0 0.00 0.01 0.01 94 1009.2
20260508103057 39 0 0.0 1.0 0.00 0.01 0.01 93 1010.1
20260508103003 40 69 0.0 1.0 0.00 0.01 0.01 94 1009.3
20260508102504 40 60 0.0 1.0 0.00 0.01 0.01 94 1009.3
20260508102004 39 3 0.0 1.0 0.00 0.01 0.01 93 1009.3
20260508101553 39 0 0.0 1.0 0.00 0.01 0.01 93 1010.3
20260508101503 39 47 0.0 1.0 0.00 0.01 0.01 93 1009.4
20260508101004 39 31 0.0 1.0 0.00 0.01 0.01 93 1009.4
20260508100504 39 353 0.0 1.0 0.00 0.01 0.01 93 1009.5
20260508100051 39 0 0.0 1.0 0.00 0.01 0.01 93 1010.4
20260508100004 39 27 0.0 1.0 0.00 0.01 0.01 93 1009.6
20260508095503 39 155 0.0 1.0 0.00 0.01 0.01 93 1009.7
20260508095004 39 20 0.0 1.0 0.00 0.01 0.01 93 1009.6
20260508094551 38 0 0.0 1.0 0.00 0.01 0.01 93 1010.6
20260508094503 39 178 0.0 1.0 0.00 0.01 0.01 93 1009.8
20260508094004 39 172 0.0 1.0 0.00 0.01 0.01 93 1009.9
20260508093503 39 277 0.0 1.0 0.00 0.01 0.01 93 1009.9
20260508093055 38 0 0.0 1.0 0.00 0.01 0.01 92 1010.7
20260508093003 39 298 0.0 1.0 0.00 0.01 0.01 93 1009.8
20260508091601 38 206 0.0 1.0 0.00 0.01 0.01 92 1010.7
20260508091504 38 218 0.0 1.0 0.00 0.01 0.01 93 1010.0
20260508091003 38 199 0.0 1.0 0.00 0.01 0.01 93 1010.0
20260508090503 38 225 1.0 1.0 0.00 0.01 0.01 92 1010.0
20260508090059 37 0 0.0 2.0 0.00 0.01 0.01 92 1010.7
20260508090003 38 85 0.0 1.0 0.00 0.01 0.01 92 1009.9
20260508085504 38 199 1.0 2.0 0.00 0.01 0.01 92 1009.9
20260508085003 38 200 1.0 2.0 0.00 0.01 0.01 92 1009.9
20260508084551 38 193 0.0 2.0 0.00 0.01 0.01 91 1010.7
20260508084503 38 198 1.0 2.0 0.00 0.01 0.01 92 1009.9
20260508084004 38 226 1.0 2.0 0.00 0.01 0.01 92 1009.9
20260508083503 38 186 0.0 1.0 0.00 0.01 0.01 91 1009.7
20260508083052 38 178 0.0 1.0 0.00 0.01 0.01 91 1010.6
20260508083004 39 186 1.0 1.0 0.00 0.01 0.01 91 1009.7
20260508082504 39 143 0.0 1.0 0.00 0.01 0.01 91 1009.7
20260508082003 39 143 0.0 1.0 0.00 0.01 0.01 91 1009.7
20260508081605 38 0 0.0 1.0 0.00 0.01 0.01 91 1010.5
20260508081504 39 86 0.0 1.0 0.00 0.01 0.01 91 1009.7
20260508081003 39 140 1.0 1.0 0.00 0.01 0.01 91 1009.7
20260508080503 39 200 0.0 1.0 0.00 0.01 0.01 91 1009.7
20260508080055 39 0 0.0 1.0 0.00 0.01 0.01 90 1010.6
20260508075504 40 195 0.0 1.0 0.00 0.01 0.01 91 1009.7
20260508075003 40 96 0.0 0.0 0.00 0.01 0.01 90 1009.7
20260508074556 40 0 0.0 1.0 0.00 0.01 0.01 90 1010.5
20260508074504 40 15 0.0 1.0 0.00 0.01 0.01 90 1009.6
20260508073503 40 14 0.0 1.0 0.00 0.01 0.01 90 1009.6
20260508073148 40 0 0.0 1.0 0.00 0.01 0.01 90 1010.5
20260508071602 41 0 0.0 1.0 0.00 0.01 0.01 89 1010.6
20260508070059 41 0 0.0 1.0 0.00 0.01 0.01 88 1010.7
20260508070004 42 264 0.0 1.0 0.00 0.01 0.01 89 1009.8
20260508064549 42 72 0.0 1.0 0.00 0.01 0.01 88 1010.5
20260508063047 42 0 0.0 1.0 0.00 0.01 0.01 87 1010.6
20260508061549 43 0 0.0 2.0 0.00 0.01 0.01 87 1010.8
20260508060047 43 0 0.0 2.0 0.00 0.01 0.01 87 1010.9
20260508054551 44 178 1.0 3.0 0.00 0.01 0.01 87 1010.9
20260508053052 44 152 1.0 2.0 0.00 0.01 0.01 87 1011.0
20260508051550 44 216 1.0 2.0 0.00 0.01 0.01 87 1010.9
20260508050051 44 0 0.0 2.0 0.01 0.01 0.01 86 1010.9
20260508044559 44 63 0.0 1.0 0.01 0.01 0.01 85 1010.9
20260508043054 44 0 0.0 2.0 0.01 0.01 0.01 84 1010.9
20260508041551 44 0 0.0 2.0 0.01 0.01 0.01 82 1010.9
20260508040057 45 46 1.0 5.0 0.00 0.00 0.00 79 1010.8
20260508040003 45 347 1.0 3.0 0.00 0.00 0.00 79 1010.0
20260508034549 45 178 1.0 4.0 0.00 0.00 0.00 74 1010.8
20260508033110 46 0 0.0 3.0 0.00 0.00 0.00 73 1010.8
20260508031551 46 331 0.0 3.0 0.00 0.00 0.00 72 1010.6
20260508030106 46 46 1.0 5.0 0.00 0.00 0.00 71 1010.7
20260508024554 46 37 1.0 4.0 0.00 0.00 0.00 69 1010.8
20260508023049 46 327 1.0 4.0 0.00 0.00 0.00 71 1010.7
20260508021548 45 0 1.0 3.0 0.00 0.00 0.00 71 1010.6
20260508014556 45 1 1.0 2.0 0.00 0.00 0.00 70 1010.2
20260508013101 46 0 0.0 1.0 0.00 0.00 0.00 65 1010.1
20260508011554 46 0 0.0 1.0 0.00 0.00 0.00 64 1010.0
20260508010046 47 0 0.0 1.0 0.00 0.00 0.00 60 1009.7
20260508004547 47 0 0.0 1.0 0.00 0.03 0.00 59 1009.7
20260508003050 48 89 0.0 2.0 0.00 0.03 0.00 58 1009.5
20260508001551 48 314 1.0 3.0 0.00 0.03 0.00 54 1009.6
20260508000050 49 347 1.0 2.0 0.00 0.03 0.00 52 1009.3
20260507235004 50 35 1.0 2.0 0.00 0.04 0.00 52 1008.4
20260507234550 50 63 0.0 2.0 0.00 0.07 0.00 51 1009.2
20260507233051 50 0 0.0 4.0 0.00 0.07 0.00 52 1009.3
20260507231550 50 56 1.0 3.0 0.00 0.07 0.00 52 1009.2
20260507230052 51 18 1.0 4.0 0.00 0.07 0.00 53 1009.2
20260507224551 51 1 0.0 4.0 0.00 0.07 0.00 49 1009.2
20260507223048 51 1 1.0 5.0 0.00 0.07 0.00 47 1009.2
20260507221551 51 286 2.0 5.0 0.00 0.07 0.00 48 1009.2
20260507220051 51 1 1.0 5.0 0.00 0.07 0.00 49 1009.3
20260507214555 53 70 3.0 7.0 0.00 0.07 0.00 44 1009.1
20260507213057 54 331 3.0 7.0 0.00 0.07 0.00 43 1009.2
20260507213004 54 338 4.0 7.0 0.00 0.07 0.00 42 1008.3
20260507211554 56 28 2.0 5.0 0.00 0.07 0.00 43 1009.2
20260507211004 53 2 2.0 5.0 0.00 0.07 0.00 49 1008.4
20260507210046 53 46 2.0 6.0 0.00 0.07 0.00 48 1009.3
20260507204548 52 23 2.0 4.0 0.00 0.07 0.00 49 1009.2
20260507203050 53 314 0.0 4.0 0.00 0.07 0.00 51 1009.3
20260507201550 52 11 2.0 7.0 0.00 0.07 0.00 49 1009.3
20260507200046 52 23 2.0 5.0 0.00 0.07 0.00 49 1009.5
20260507195004 53 31 3.0 5.0 0.00 0.07 0.00 50 1008.9
20260507194551 53 25 1.0 5.0 0.00 0.07 0.00 49 1009.7
20260507193047 52 44 2.0 7.0 0.00 0.07 0.00 50 1009.7
20260507191555 52 342 3.0 7.0 0.00 0.07 0.00 53 1009.8
20260507191003 53 30 2.0 3.0 0.00 0.07 0.00 54 1009.0
20260507190048 52 18 2.0 8.0 0.00 0.07 0.00 54 1009.9
20260507184552 54 333 2.0 6.0 0.00 0.07 0.00 48 1009.8
20260507183058 55 46 1.0 5.0 0.00 0.07 0.00 53 1009.7